Location: Sabana Grande
(18.0777°N, 66.9605°W)
Time: 03:34:51
(UTC-04:00)

ACS3 Solar Sail - Pass Details

Date: 26 September 2024
Orbit: 960 x 1033 km, 97.5° (Epoch: 12 October)

Event Time Altitude Azimuth Distance (km) Brightness Sun altitude
Exits shadow 21:50:21 10° 321° (NW) 2,799 4.6 -50.1°
Drops below altitude 10° 21:50:27 10° 321° (NW) 2,829 4.6 -50.1°
Sets 21:53:18 0° 332° (NNW) 3,783 5.3 -50.8°
